Kearney, NE

2:00 PM CDT on June 26, 2017 (GMT -0500)
Kearney Municipal

Weather History for KEAR - February, 2014

Change the Weather History Date:

Tuesday, February 11, 2014

  Actual Average Record
Temperature  
Mean Temperature 20 °F 27 °F  
Max Temperature 27 °F 39 °F 79 °F (1962)
Min Temperature 12 °F 16 °F -21 °F (1981)
Degree Days  
Heating Degree Days 45 38  
Month to date heating degree days 427  
Cooling Degree Days 0 0  
Month to date cooling degree days 0  
Moisture  
Dew Point 13 °F    
Average Humidity 80    
Maximum Humidity 84    
Minimum Humidity 76    
Precipitation  
Precipitation 0.00 in - 0.60 in (1993)
Sea Level Pressure  
Sea Level Pressure 30.13 in    
Wind  
Wind Speed 15 mph (South)    
Max Wind Speed 21 mph    
Max Gust Speed 25 mph    
Visibility 10 miles    
Events      
T = Trace of Precipitation, MM = Missing Value Source: NWS Daily Summary

Daily Weather History Graph

Daily Weather History Graph

Search for Another Location

Airport or City:

Trip Planner

Search our weather history database for the weather conditions in past years. The results will help you decide how hot, cold, wet, or windy it might be!

Date:

Astronomy

Feb. 11, 2014 Rise Set
Actual Time 7:34 AM CST 6:06 PM CST
Civil Twilight 7:06 AM CST 6:34 PM CST
Nautical Twilight 6:34 AM CST 7:06 PM CST
Astronomical Twilight 6:02 AM CST 7:38 PM CST
Moon 3:27 PM CST (2/11) 5:13 AM CST (2/11)
Length of Visible Light 11h 27m
Length of Day
10h 31m
Waxing Gibbous, 91% of the Moon is Illuminated
Feb 11
Waxing Gibbous
Feb 14
Full
Feb 22
Last Quarter
Mar 1
New
Mar 8
First Quarter

Hourly Weather History & Observations

Time (CST) Temp. Windchill Dew Point Humidity Pressure Visibility Wind Dir Wind Speed Gust Speed Precip Events Conditions
12:15 AM 14.0 °F 2.0 °F 8.6 °F 79% 30.32 in 10.0 mi SSW 9.2 mph - N/A   Overcast
12:35 AM 14.0 °F -0.2 °F 6.8 °F 73% 30.31 in 10.0 mi SSW 12.7 mph - N/A   Overcast
12:55 AM 14.0 °F 1.2 °F 8.6 °F 79% 30.30 in 10.0 mi SSW 10.4 mph - N/A   Overcast
1:15 AM 14.0 °F 2.0 °F 8.6 °F 79% 30.30 in 10.0 mi SSW 9.2 mph - N/A   Overcast
1:35 AM 14.0 °F 0.5 °F 8.6 °F 79% 30.30 in 10.0 mi SSW 11.5 mph - N/A   Overcast
1:55 AM 12.2 °F -1.0 °F 8.6 °F 85% 30.30 in 10.0 mi South 10.4 mph - N/A   Overcast
2:15 AM 12.2 °F -0.2 °F 8.6 °F 85% 30.30 in 10.0 mi SSW 9.2 mph - N/A   Mostly Cloudy
2:35 AM 12.2 °F -1.0 °F 8.6 °F 85% 30.30 in 10.0 mi South 10.4 mph - N/A   Overcast
2:55 AM 12.2 °F -3.1 °F 8.6 °F 85% 30.28 in 10.0 mi South 13.8 mph - N/A   Overcast
3:15 AM 12.2 °F -4.8 °F 8.6 °F 85% 30.27 in 10.0 mi South 17.3 mph - N/A   Overcast
3:35 AM 12.2 °F -4.3 °F 8.6 °F 85% 30.27 in 9.0 mi South 16.1 mph - N/A   Overcast
3:55 AM 14.0 °F -0.2 °F 8.6 °F 79% 30.27 in 10.0 mi South 12.7 mph - N/A   Overcast
4:15 AM 14.0 °F -1.4 °F 8.6 °F 79% 30.26 in 10.0 mi South 15.0 mph - N/A   Overcast
4:35 AM 14.0 °F -2.0 °F 8.6 °F 79% 30.26 in 10.0 mi South 16.1 mph - N/A   Overcast
4:55 AM 12.2 °F -4.3 °F 8.6 °F 85% 30.26 in 10.0 mi South 16.1 mph - N/A   Overcast
5:15 AM 12.2 °F -4.3 °F 8.6 °F 85% 30.25 in 10.0 mi South 16.1 mph - N/A   Overcast
5:35 AM 12.2 °F -3.7 °F 8.6 °F 85% 30.25 in 10.0 mi South 15.0 mph - N/A   Overcast
5:55 AM 12.2 °F -3.1 °F 6.8 °F 79% 30.24 in 10.0 mi South 13.8 mph - N/A   Overcast
6:15 AM 12.2 °F -3.7 °F 8.6 °F 85% 30.24 in 10.0 mi South 15.0 mph - N/A   Overcast
6:35 AM 12.2 °F -2.5 °F 8.6 °F 85% 30.24 in 10.0 mi South 12.7 mph - N/A   Overcast
6:55 AM 12.2 °F -1.8 °F 8.6 °F 85% 30.23 in 10.0 mi South 11.5 mph - N/A   Overcast
7:15 AM 12.2 °F -4.3 °F 8.6 °F 85% 30.23 in 10.0 mi South 16.1 mph - N/A   Overcast
7:35 AM 12.2 °F -5.3 °F 8.6 °F 85% 30.22 in 10.0 mi South 18.4 mph - N/A   Overcast
7:55 AM 12.2 °F -4.8 °F 8.6 °F 85% 30.23 in 10.0 mi South 17.3 mph - N/A   Overcast
8:15 AM 12.2 °F -2.5 °F 6.8 °F 79% 30.23 in 10.0 mi South 12.7 mph - N/A   Overcast
8:35 AM 12.2 °F -1.8 °F 8.6 °F 85% 30.23 in 10.0 mi South 11.5 mph - N/A   Overcast
8:55 AM 14.0 °F -0.2 °F 8.6 °F 79% 30.22 in 10.0 mi South 12.7 mph - N/A   Overcast
9:15 AM 14.0 °F -1.4 °F 8.6 °F 79% 30.22 in 10.0 mi South 15.0 mph - N/A   Overcast
9:35 AM 14.0 °F -2.5 °F 10.4 °F 86% 30.21 in 10.0 mi South 17.3 mph - N/A   Overcast
9:55 AM 15.8 °F 1.4 °F 10.4 °F 79% 30.20 in 10.0 mi South 13.8 mph - N/A   Overcast
10:15 AM 15.8 °F 0.9 °F 10.4 °F 79% 30.20 in 10.0 mi South 15.0 mph - N/A   Overcast
10:35 AM 15.8 °F 0.9 °F 10.4 °F 79% 30.20 in 10.0 mi South 15.0 mph - N/A   Overcast
10:55 AM 15.8 °F 1.4 °F 10.4 °F 79% 30.19 in 10.0 mi South 13.8 mph - N/A   Overcast
11:15 AM 17.6 °F 1.7 °F 10.4 °F 73% 30.19 in 10.0 mi South 18.4 mph - N/A   Overcast
11:35 AM 17.6 °F 1.7 °F 12.2 °F 79% 30.19 in 10.0 mi SSW 18.4 mph - N/A   Overcast
11:55 AM 17.6 °F 2.2 °F 12.2 °F 79% 30.18 in 10.0 mi South 17.3 mph 20.7 mph N/A   Overcast
12:15 PM 19.4 °F 4.1 °F 12.2 °F 74% 30.16 in 10.0 mi South 18.4 mph - N/A   Overcast
12:35 PM 19.4 °F 3.6 °F 14.0 °F 80% 30.15 in 10.0 mi South 19.6 mph - N/A   Overcast
12:55 PM 21.2 °F 6.8 °F 15.8 °F 80% 30.13 in 10.0 mi South 17.3 mph - N/A   Overcast
1:15 PM 21.2 °F 6.4 °F 15.8 °F 80% 30.12 in 10.0 mi South 18.4 mph - N/A   Overcast
1:35 PM 21.2 °F 6.0 °F 17.6 °F 86% 30.10 in 10.0 mi South 19.6 mph - N/A   Overcast
1:55 PM 23.0 °F 9.2 °F 17.6 °F 80% 30.09 in 10.0 mi South 17.3 mph - N/A   Overcast
2:15 PM 23.0 °F 9.6 °F 17.6 °F 80% 30.07 in 10.0 mi South 16.1 mph - N/A   Overcast
2:35 PM 24.8 °F 10.0 °F 19.4 °F 80% 30.06 in 10.0 mi South 21.9 mph - N/A   Overcast
2:55 PM 24.8 °F 11.1 °F 19.4 °F 80% 30.05 in 10.0 mi South 18.4 mph - N/A   Overcast
3:15 PM 26.6 °F 12.4 °F 19.4 °F 74% 30.04 in 10.0 mi South 21.9 mph - N/A   Overcast
3:35 PM 26.6 °F 12.7 °F 19.4 °F 74% 30.03 in 10.0 mi South 20.7 mph 26.5 mph N/A   Overcast
3:55 PM 26.6 °F 13.4 °F 21.2 °F 80% 30.03 in 10.0 mi South 18.4 mph - N/A   Overcast
4:15 PM 26.6 °F 13.1 °F 21.2 °F 80% 30.01 in 10.0 mi South 19.6 mph - N/A   Mostly Cloudy
4:35 PM 26.6 °F 13.4 °F 21.2 °F 80% 30.00 in 10.0 mi South 18.4 mph - N/A   Clear
4:55 PM 26.6 °F 13.4 °F 21.2 °F 80% 30.00 in 10.0 mi South 18.4 mph - N/A   Clear
5:15 PM 26.6 °F 14.7 °F 19.4 °F 74% 30.00 in 10.0 mi South 15.0 mph - N/A   Clear
5:35 PM 24.8 °F 12.9 °F 19.4 °F 80% 30.00 in 10.0 mi South 13.8 mph - N/A   Clear
5:55 PM 24.8 °F 12.9 °F 19.4 °F 80% 30.00 in 10.0 mi South 13.8 mph - N/A   Clear
6:15 PM 24.8 °F 12.4 °F 17.6 °F 74% 29.99 in 10.0 mi South 15.0 mph - N/A   Clear
6:35 PM 24.8 °F 12.4 °F 17.6 °F 74% 29.99 in 10.0 mi South 15.0 mph - N/A   Clear
6:55 PM 23.0 °F 9.6 °F 17.6 °F 80% 30.00 in 10.0 mi South 16.1 mph - N/A   Clear
7:15 PM 23.0 °F 8.7 °F 17.6 °F 80% 29.99 in 10.0 mi South 18.4 mph - N/A   Clear
7:35 PM 23.0 °F 8.7 °F 17.6 °F 80% 29.99 in 10.0 mi South 18.4 mph - N/A   Clear
7:55 PM 23.0 °F 8.3 °F 17.6 °F 80% 29.98 in 10.0 mi SSW 19.6 mph 24.2 mph N/A   Partly Cloudy
8:15 PM 23.0 °F 8.3 °F 17.6 °F 80% 29.97 in 10.0 mi South 19.6 mph - N/A   Partly Cloudy
8:35 PM 23.0 °F 8.0 °F 17.6 °F 80% 29.97 in 10.0 mi South 20.7 mph 26.5 mph N/A   Scattered Clouds
8:55 PM 23.0 °F 9.2 °F 17.6 °F 80% 29.98 in 10.0 mi SSW 17.3 mph 23.0 mph N/A   Scattered Clouds
9:15 PM 23.0 °F 9.2 °F 17.6 °F 80% 29.98 in 10.0 mi SSW 17.3 mph - N/A   Mostly Cloudy
9:35 PM 23.0 °F 9.2 °F 17.6 °F 80% 29.98 in 10.0 mi SSW 17.3 mph - N/A   Overcast
9:55 PM 23.0 °F 9.6 °F 17.6 °F 80% 29.98 in 10.0 mi SSW 16.1 mph 24.2 mph N/A   Mostly Cloudy
10:15 PM 23.0 °F 9.6 °F 17.6 °F 80% 29.97 in 10.0 mi SSW 16.1 mph - N/A   Mostly Cloudy
10:35 PM 23.0 °F 8.3 °F 17.6 °F 80% 29.96 in 10.0 mi SSW 19.6 mph - N/A   Overcast
10:55 PM 23.0 °F 8.0 °F 17.6 °F 80% 29.96 in 10.0 mi SSW 20.7 mph 25.3 mph N/A   Overcast
11:15 PM 23.0 °F 8.0 °F 17.6 °F 80% 29.95 in 10.0 mi SSW 20.7 mph - N/A   Overcast
11:35 PM 23.0 °F 9.2 °F 17.6 °F 80% 29.96 in 10.0 mi SSW 17.3 mph - N/A   Overcast
11:55 PM 24.8 °F 11.1 °F 19.4 °F 80% 29.94 in 10.0 mi SSW 18.4 mph - N/A   Overcast